User: anonymous   Login
Location: Davayat
(45.9471°N, 3.1105°E)
Time: 10:39:28
(UTC+00:00)
Language:

Cosmos 1943 Rocket - Orbit

View from above orbital plane
View from above orbital plane
View from above satellite
View from above satellite

Ground track
Ground track

The orbit data is extracted from the following two-line orbital elements,

1 19120U 88039B   21064.18387668 -.00000168  00000-0 -57093-4 0  9996
2 19120  71.0173 337.5873 0024275 267.5127  92.3218 14.19218826698910
Epoch (UTC): 05 March 2021 04:24:46
Eccentricity: 0.0024275
inclination: 71.0173°
perigee height: 810 km
apogee height: 845 km
right ascension of ascending node: 337.5873°
argument of perigee: 267.5127°
revolutions per day: 14.19218826
mean anomaly at epoch: 92.3218°
orbit number at epoch: 69891

The dashed part of the orbit path shows where the satellite is in the earth's shadow,  

DLR